Weather History for Pian Rosa, Italy

Change the Weather History Date:

Sunday, October 7, 2012

  Actual Average Record
Temperature  
Mean Temperature 30 °F -  
Max Temperature 33 °F 28 °F 39 °F (2010)
Min Temperature 27 °F 20 °F 10 °F (2011)
Degree Days  
Heating Degree Days 35    
Moisture  
Dew Point 23 °F    
Average Humidity 76    
Maximum Humidity 100    
Minimum Humidity 29    
Precipitation  
Precipitation 0.00 in - - ()
Sea Level Pressure  
Sea Level Pressure 30.29 in    
Wind  
Wind Speed 14 mph ()    
Max Wind Speed 34 mph    
Max Gust Speed -    
Visibility 3.5 miles    
Events Fog , Snow    
Averages and records for this station are not official NWS values.
T = Trace of Precipitation, MM = Missing Value Source: Averaged Metar Reports

Daily Weather History Graph

Daily Weather History Graph

Search for Another Location

Airport:

Trip Planner

Search our weather history database for the weather conditions in past years. The results will help you decide how hot, cold, wet, or windy it might be!

Date:

Astronomy

Oct. 07, 2012 Rise Set
Actual Time 7:35 AM CEST 6:57 PM CEST
Civil Twilight 7:05 AM CEST 7:27 PM CEST
Nautical Twilight 6:31 AM CEST 8:01 PM CEST
Astronomical Twilight 5:56 AM CEST 8:36 PM CEST
Moon 11:40 PM CEST (10/7) 2:15 PM CEST (10/7)
Length of Visible Light 12h 21m
Length of Day
11h 21m
Waning Gibbous, 58% of the Moon is Illuminated
Oct 7
Waning Gibbous
Oct 8
Last Quarter
Oct 15
New
Oct 22
First Quarter
Oct 29
Full

Hourly Weather History & Observations

Time (CEST) Temp. Windchill Dew Point Humidity Pressure Visibility Wind Dir Wind Speed Gust Speed Precip Events Conditions
12:55 AM 28.4 °F 18.5 °F 23.0 °F 80% 30.36 in 6.2 mi South 11.5 mph - N/A   Partly Cloudy
1:55 AM 28.4 °F 16.2 °F 24.8 °F 86% 30.33 in 0.1 mi South 17.3 mph - N/A Fog Light Freezing Fog
2:00 AM 28 °F - 25 °F 84%  in 0 mi South 17.3 mph - - Fog Heavy Fog
2:55 AM 26.6 °F 17.5 °F 24.8 °F 93% 30.33 in 0.1 mi South 9.2 mph - N/A Fog , Snow Light Snow
3:55 AM 26.6 °F 15.2 °F 24.8 °F 93% 30.30 in 0.1 mi SSW 13.8 mph - N/A Fog , Snow Light Snow
4:55 AM 26.6 °F 15.2 °F 26.6 °F 100% 30.27 in 0.1 mi SSW 13.8 mph - N/A Fog , Snow Light Snow
5:00 AM 27 °F - 26 °F 95%  in 0 mi SSW 13.8 mph - - Snow Light Snow
5:55 AM 28.4 °F 21.2 °F 24.8 °F 86% 30.27 in 0.1 mi SW 6.9 mph - N/A Fog , Snow Light Snow
6:55 AM 30.2 °F 21.9 °F 24.8 °F 80% 30.27 in 0.1 mi NW 9.2 mph - N/A Fog , Snow Light Snow
7:55 AM 30.2 °F 21.9 °F 26.6 °F 86% 30.24 in 0.6 mi WNW 9.2 mph - N/A Fog , Snow Light Snow
8:00 AM 30 °F - 27 °F 85%  in 1 mi WNW 9.2 mph - - Snow Light Snow
8:55 AM 30.2 °F 21.3 °F 26.6 °F 86% 30.27 in 0.6 mi West 10.4 mph - N/A Fog , Snow Light Snow
9:55 AM 30.2 °F 20.2 °F 23.0 °F 75% 30.27 in 6.2 mi West 12.7 mph - N/A   Scattered Clouds
10:55 AM 32.0 °F 22.5 °F 23.0 °F 69% 30.27 in 6.2 mi West 12.7 mph - N/A   Scattered Clouds
11:00 AM 32 °F - 23 °F 59%  in 9 mi West 12.7 mph - -   Partly Cloudy
11:55 AM 32.0 °F 21.6 °F 24.8 °F 75% 30.24 in 6.2 mi West 15.0 mph - N/A   Scattered Clouds
12:55 PM 33.8 °F 24.3 °F 24.8 °F 70% 30.27 in 6.2 mi West 13.8 mph - N/A   Scattered Clouds
1:55 PM 32.0 °F 23.0 °F 24.8 °F 75% 30.27 in 0.7 mi North 11.5 mph - N/A   Scattered Clouds
2:00 PM 33 °F - 26 °F 65%  in 1 mi North 11.5 mph - -   Mist
2:55 PM 30.2 °F 17.4 °F 24.8 °F 80% 30.30 in 0.7 mi North 20.7 mph - N/A   Scattered Clouds
3:55 PM 30.2 °F 15.4 °F 26.6 °F 86% 30.30 in 5.0 mi North 28.8 mph - N/A   Scattered Clouds
4:55 PM 28.4 °F 13.0 °F 24.8 °F 86% 30.27 in 6.2 mi NNE 28.8 mph - N/A   Scattered Clouds
5:00 PM 29 °F - 24 °F 75%  in 12 mi NNE 28.8 mph - -   Partly Cloudy
5:55 PM 28.4 °F 12.3 °F 23.0 °F 80% 30.27 in 6.2 mi NNE 32.2 mph - N/A   Scattered Clouds
6:55 PM 28.4 °F 11.8 °F 23.0 °F 80% 30.27 in 6.2 mi NNE 34.5 mph - N/A   Partly Cloudy
7:55 PM 28.4 °F 15.1 °F 21.2 °F 74% 30.27 in 6.2 mi NNE 20.7 mph - N/A   Partly Cloudy
8:55 PM 28.4 °F 14.7 °F 21.2 °F 74% 30.27 in 6.2 mi NNE 21.9 mph - N/A   Partly Cloudy
9:55 PM 28.4 °F 16.2 °F 15.8 °F 59% 30.30 in - NNE 17.3 mph - N/A   Clear
10:55 PM 28.4 °F 17.0 °F 14.0 °F 55% 30.30 in - NNE 15.0 mph - N/A   Clear
11:00 PM 29 °F - 15 °F 41%  in 6 mi NNE 15.0 mph - -  
11:55 PM 30.2 °F 19.3 °F 1.4 °F 29% 30.33 in - North 15.0 mph - N/A   Clear